CW9443 Weather Reports


Display with metric or nautical units.
time (UTC)temp
F
wind
direction
speed
MPH
gust
MPH
rain 1hr
in
rain 24hr
in
rain mn
in
humidity
%
barometer
mb
20260510120015 52 229 0.0 0.0 0.00 0.00 0.00 94 1011.3
20260510114513 51 229 0.0 0.0 0.00 0.00 0.00 94 1011.2
20260510113005 51 229 0.0 0.0 0.00 0.00 0.00 94 1011.0
20260510110054 52 229 0.0 0.0 0.00 0.00 0.00 93 1011.1
20260510104553 52 229 0.0 0.0 0.00 0.00 0.00 93 1010.9
20260510103102 52 229 0.0 0.0 0.00 0.00 0.00 93 1010.8
20260510100053 53 229 0.0 0.0 0.00 0.00 0.00 92 1010.9
20260510094559 53 229 0.0 0.0 0.00 0.00 0.00 91 1011.0
20260510093059 54 229 0.0 0.0 0.00 0.00 0.00 91 1011.0
20260510090008 55 229 0.0 0.0 0.00 0.00 0.00 91 1011.0
20260510084517 55 229 0.0 0.0 0.00 0.00 0.00 90 1010.9
20260510083007 55 229 0.0 0.0 0.00 0.00 0.00 91 1010.9
20260510080016 55 229 0.0 0.0 0.00 0.00 0.00 91 1011.2
20260510074507 55 229 0.0 0.0 0.00 0.00 0.00 90 1011.3
20260510073016 56 229 0.0 0.0 0.00 0.00 0.00 91 1011.3
20260510070045 56 229 0.0 0.0 0.00 0.00 0.00 90 1011.5
20260510064551 56 229 0.0 0.0 0.00 0.00 0.00 90 1011.4
20260510063047 56 229 0.0 0.0 0.00 0.00 0.00 89 1011.5
20260510060045 57 229 0.0 0.0 0.00 0.00 0.00 88 1011.4
20260510054543 58 229 0.0 0.0 0.00 0.00 0.00 86 1011.4
20260510053041 58 229 0.0 0.0 0.00 0.00 0.00 86 1011.5
20260510050014 58 229 0.0 0.0 0.00 0.00 0.00 86 1011.4
20260510044513 58 229 0.0 0.0 0.00 0.00 0.00 86 1011.3
20260510043014 58 229 0.0 0.0 0.00 0.00 0.00 86 1011.3
20260510040057 58 229 0.0 0.0 0.00 0.00 0.00 86 1011.1
20260510034655 58 229 0.0 0.0 0.00 0.00 0.00 85 1010.9
20260510033047 58 229 0.0 0.0 0.00 0.00 0.00 85 1010.9
20260510031546 58 229 0.0 0.0 0.00 0.00 0.00 84 1010.7
20260510000043 70 223 0.0 0.0 0.00 0.00 0.00 66 1010.4
20260509234640 71 231 0.0 0.0 0.00 0.00 0.00 64 1010.4
20260509233013 72 217 0.0 0.0 0.00 0.00 0.00 64 1010.4
20260509231514 72 233 1.0 0.0 0.00 0.00 0.00 65 1010.5
20260509230013 72 210 0.0 0.0 0.00 0.00 0.00 64 1010.5
20260509223052 72 210 1.0 0.0 0.00 0.00 0.00 65 1010.7
20260509221550 73 223 0.0 0.0 0.00 0.00 0.00 63 1010.9
20260509220050 74 217 0.0 0.0 0.00 0.00 0.00 62 1011.0
20260509214648 74 211 0.0 0.0 0.00 0.00 0.00 62 1011.3
20260509213055 74 209 1.0 0.0 0.00 0.00 0.00 62 1011.3
20260509211543 73 207 2.0 0.0 0.00 0.00 0.00 64 1011.5
20260509210058 74 248 1.0 0.0 0.00 0.00 0.00 63 1011.6
20260509204640 74 214 1.0 0.0 0.00 0.00 0.00 63 1011.7
20260509203047 73 214 2.0 0.0 0.00 0.00 0.00 63 1011.8
20260509201546 73 224 1.0 0.0 0.00 0.00 0.00 66 1011.8
20260509200046 73 215 1.0 0.0 0.00 0.00 0.00 65 1011.8
20260509194642 71 236 2.0 0.0 0.00 0.00 0.00 68 1012.0
20260509193046 71 237 2.0 0.0 0.00 0.00 0.00 68 1012.1
20260509191545 71 213 1.0 0.0 0.00 0.00 0.00 69 1012.3
20260509190045 70 210 1.0 0.0 0.00 0.00 0.00 71 1012.3
20260509184640 67 205 1.0 0.0 0.00 0.00 0.00 75 1012.5
20260509183051 67 203 1.0 0.0 0.00 0.00 0.00 75 1012.5
20260509181557 66 203 0.0 0.0 0.00 0.00 0.00 77 1012.7
20260509180047 64 202 1.0 0.0 0.00 0.00 0.00 80 1012.8
20260509174645 63 200 0.0 0.0 0.00 0.00 0.00 82 1012.8
20260509173050 63 200 0.0 0.0 0.00 0.00 0.00 83 1012.8
20260509171551 62 198 0.0 0.0 0.00 0.00 0.00 83 1012.8
20260509170051 62 195 0.0 0.0 0.00 0.00 0.00 86 1012.6
20260509164646 58 190 0.0 0.0 0.00 0.00 0.00 94 1012.7
20260509163027 58 190 0.0 0.0 0.00 0.00 0.00 94 1012.7
20260509161524 57 190 0.0 0.0 0.00 0.00 0.00 94 1012.7
20260509160020 56 190 0.0 0.0 0.00 0.00 0.00 95 1012.6
20260509154618 56 190 0.0 0.0 0.00 0.00 0.00 95 1012.7
20260509153016 55 190 0.0 0.0 0.00 0.00 0.00 95 1012.7
20260509151516 55 190 0.0 0.0 0.00 0.00 0.00 95 1012.7
20260509150013 54 189 0.0 0.0 0.00 0.00 0.00 95 1012.5
20260509144612 54 188 0.0 0.0 0.00 0.00 0.00 95 1012.5
20260509143020 54 189 0.0 0.0 0.00 0.00 0.00 95 1012.5
20260509141519 54 189 0.0 0.0 0.00 0.00 0.00 94 1012.5
20260509140018 53 189 0.0 0.0 0.00 0.00 0.00 95 1012.5
20260509134618 53 189 0.0 0.0 0.00 0.00 0.00 94 1012.3
20260509133025 53 189 0.0 0.0 0.00 0.00 0.00 94 1012.3
20260509131532 54 189 0.0 0.0 0.00 0.00 0.00 94 1012.1